Temp
23 22 22 24 28 30 29 28 29 27 27 27 28 27 26 25 26 27 21 21 21 21 21 21 21 21 21 21 21 21 21 21 21 21 21 21 21 21 21 21 21 21 21 21 21 21 21 21 21
23 23 23 25 29 29 28 29 28 28 27 27 26 26 26 24 23 23 22 21 21 21 21 21 21 21 21 22 21 21 21 21 21 21 21 21 21 21 21 21 21 21 21 21 21 21 21 21 21
22 23 26 27 29 29 28 26 25 24 27 26 26 26 25 23 23 23 22 21 21 21 21 21 21 21 21 21 21 21 21 21 21 21 21 21 21 21 21 21 20 20 20 21 21 21 22 22 22
24 25 26 29 29 28 29 28 26 26 26 26 26 25 25 24 24 23 21 21 21 21 21 21 21 21 21 21 21 21 21 21 21 21 21 21 21 21 20 20 20 20 21 21 22 22 22 22 22
24 26 28 29 29 29 29 29 28 28 27 26 26 24 25 23 22 22 21 21 22 21 21 21 21 21 22 22 21 22 21 21 21 21 21 21 21 20 20 20 21 21 21 22 22 22 22 22 23
27 26 29 29 28 29 29 29 28 27 26 26 26 26 23 22 23 22 22 22 22 22 21 21 21 22 22 21 21 21 21 21 21 21 21 22 21 21 21 21 21 22 22 23 23 23 23 23 24
27 27 29 30 29 29 29 29 28 27 27 26 27 25 23 23 22 22 22 21 22 22 21 21 21 21 21 21 21 21 21 21 21 22 22 22 22 22 22 22 23 23 23 24 24 24 24 24 24
25 27 30 30 29 29 29 28 28 28 26 27 27 25 23 24 22 22 21 21 21 21 21 21 21 21 21 21 22 21 21 22 22 22 23 23 23 23 23 23 24 24 25 25 25 24 25 25 25
26 30 30 30 30 29 29 28 28 28 27 27 27 27 26 23 22 22 22 22 21 21 21 21 21 20 20 21 21 22 22 23 23 23 24 23 23 22 23 24 24 25 25 25 25 25 25 25 25
28 30 31 32 31 30 30 29 28 28 27 26 25 25 23 23 23 24 23 23 22 22 21 21 21 21 21 22 21 21 22 22 22 23 22 22 24 24 23 24 24 24 25 25 25 25 24 25 24
28 30 31 32 32 31 29 29 28 28 27 26 26 25 24 24 24 24 24 24 23 23 22 21 21 21 22 21 21 22 22 23 24 24 23 24 25 25 24 24 24 24 24 24 25 24 24 24 24
29 30 31 31 31 30 30 29 28 29 29 28 27 25 25 25 25 25 24 24 23 23 23 22 22 22 22 21 22 23 23 23 24 24 24 24 25 25 26 25 26 25 24 25 26 24 23 24 25
29 30 32 31 31 31 30 29 29 27 27 27 26 25 25 26 25 25 25 24 24 23 23 23 22 23 23 23 23 23 23 24 25 25 24 24 25 25 26 26 25 25 26 26 26 24 24 25 25
30 32 31 30 30 30 29 28 29 27 27 26 26 26 26 26 26 25 24 24 24 24 24 23 22 24 23 24 24 24 24 24 25 25 25 25 25 26 26 27 27 26 26 26 26 25 26 26 26
31 31 31 30 30 29 30 29 29 27 28 27 26 26 26 26 26 25 25 25 24 24 24 24 23 23 24 24 24 25 25 24 24 25 25 25 25 26 26 26 26 26 27 27 26 26 26 26 25
32 31 30 30 31 29 30 30 28 27 28 27 27 26 26 26 26 26 25 25 24 24 23 23 24 24 24 24 24 25 25 25 25 25 25 25 25 25 26 26 26 26 26 26 26 26 26 25 25
30 30 30 30 31 30 30 30 28 28 28 27 27 27 27 27 26 26 25 25 25 24 24 23 24 24 24 24 24 25 26 25 25 26 26 25 25 25 26 26 26 26 26 26 26 25 26 26 26
31 30 30 30 31 30 30 30 29 28 28 28 28 28 27 27 27 26 26 26 25 25 24 23 24 24 24 24 24 23 24 25 25 26 26 26 26 25 25 25 25 26 25 24 25 25 24 24 24
31 31 31 30 29 30 30 30 29 29 29 28 28 28 28 28 28 27 26 26 25 25 24 23 24 24 23 23 23 23 25 24 25 25 25 25 25 25 25 24 24 25 24 24 25 24 24 25 24
32 31 31 29 28 30 29 30 30 29 29 29 29 29 29 29 29 28 27 26 26 25 24 24 24 24 24 23 23 24 24 24 23 25 25 25 24 24 25 25 24 24 24 24 23 23 23 24 23
32 32 31 30 28 28 28 30 29 30 29 30 30 30 30 29 29 29 27 27 26 25 24 24 25 24 25 24 23 23 24 24 23 24 25 24 24 23 24 24 24 23 23 23 23 23 24 23 23
31 31 31 30 30 29 28 29 29 29 29 30 29 30 30 30 30 30 28 27 26 26 25 24 24 25 25 24 23 23 24 24 25 25 23 23 22 21 21 21 22 22 22 22 22 21 21 22 22
30 30 30 29 29 29 28 29 31 28 29 29 30 30 30 31 30 30 29 28 27 26 25 24 23 24 25 25 24 23 23 24 24 22 22 21 20 19 18 19 20 21 20 20 20 20 20 20 20
30 29 29 28 28 29 30 30 33 32 29 30 30 30 30 30 30 30 29 28 26 26 25 24 23 23 24 24 24 23 23 24 22 21 19 19 19 19 18 19 20 20 19 18 19 19 20 18 18
30 31 31 29 28 31 27 28 31 31 29 26 27 29 31 31 30 29 28 27 26 26 25 24 23 23 23 23 24 24 23 23 20 19 18 18 18 18 17 17 18 19 19 19 19 19 18 17 17
30 32 32 30 31 32 27 30 32 27 25 25 25 28 30 31 31 30 29 27 25 25 24 24 22 22 21 21 20 21 20 19 19 18 17 17 17 17 15 17 18 18 19 18 18 16 16 15 15
30 30 32 30 28 30 32 30 30 26 26 25 23 21 20 22 24 24 23 25 24 23 22 19 17 17 16 16 17 18 18 18 18 17 17 16 15 14 16 17 17 17 17 17 17 16 16 15 15
32 31 31 30 30 30 32 30 34 29 28 24 21 20 19 18 18 18 18 17 17 16 16 17 18 17 18 19 18 16 15 15 16 16 16 15 14 14 15 16 16 17 18 17 17 15 16 15 15
31 32 30 31 31 32 32 33 29 28 26 23 20 19 19 19 18 18 17 16 16 17 17 17 18 17 16 17 18 17 16 15 16 15 14 14 14 15 15 16 15 16 16 16 16 16 15 15 15
31 33 33 32 31 29 30 32 25 25 24 22 21 20 19 18 18 18 17 17 17 17 16 17 17 17 17 17 16 16 15 14 14 14 14 15 15 15 15 15 15 16 16 16 15 15 15 15 15
Height
785 785 785 785 798 792 811 815 801 813 813 808 809 815 819 823 826 835 831 832 834 836 838 838 839 839 839 840 840 841 841 842 843 843 843 844 845 845 846 845 845 846 846 845 845 845 847 848 848
785 785 785 786 801 812 821 805 812 808 810 808 813 816 820 830 825 828 831 833 836 838 839 840 840 840 840 841 842 843 843 844 844 845 845 846 846 847 848 848 848 848 847 847 847 847 848 849 850
786 785 786 794 802 815 820 815 814 816 809 812 818 815 820 830 829 830 832 835 837 839 841 842 841 841 841 842 843 844 845 845 846 846 846 847 847 848 849 850 850 849 848 848 849 849 850 851 852
786 786 788 800 811 808 806 807 811 813 813 813 814 825 824 828 829 831 834 837 839 841 842 842 842 842 843 844 845 845 846 847 848 848 849 848 849 850 850 851 851 850 850 850 850 850 851 852 852
785 785 801 806 809 806 802 803 807 811 812 815 815 828 827 831 830 833 835 838 840 841 842 843 843 843 844 845 846 846 847 848 849 850 850 851 851 851 852 852 851 851 852 851 851 852 853 853 853
788 790 805 813 813 806 803 802 806 810 814 818 820 821 831 832 833 835 837 839 841 842 842 844 844 845 846 846 847 847 848 848 849 850 851 852 852 852 853 853 852 852 852 851 852 853 854 855 855
792 798 806 805 811 809 804 799 807 810 814 819 815 825 831 833 834 836 838 840 841 843 843 845 846 847 847 847 848 848 849 850 850 851 852 853 853 854 854 854 853 853 852 853 854 854 855 856 856
792 796 803 802 810 811 801 803 805 807 816 813 814 827 833 830 834 836 839 841 843 844 845 846 847 847 848 849 849 849 851 851 852 853 853 854 854 855 855 855 854 854 853 854 855 856 856 856 857
789 797 807 803 804 806 799 806 806 806 811 812 815 816 821 829 834 837 839 841 843 844 845 847 848 848 848 849 850 851 852 852 853 855 854 856 856 856 856 857 856 855 855 855 856 857 857 857 857
793 799 799 787 788 797 798 801 807 811 814 819 819 821 826 830 833 835 838 840 843 844 845 847 848 849 850 851 852 853 854 854 855 856 856 857 857 856 856 857 857 857 856 856 857 857 858 858 858
793 798 787 785 784 790 799 804 803 810 818 815 817 820 826 829 832 834 837 839 841 844 845 846 848 850 852 852 853 855 855 854 855 856 857 857 856 856 856 856 857 857 857 857 856 856 857 858 857
797 787 787 785 786 793 801 800 808 806 807 808 817 821 825 829 831 832 835 839 841 843 846 848 848 850 852 853 854 855 856 856 856 856 857 857 856 856 856 856 856 857 857 856 855 857 857 857 856
794 789 783 786 790 794 798 805 806 811 808 813 819 824 825 827 830 833 836 838 841 843 846 849 850 851 853 854 855 856 857 857 857 858 858 858 858 857 857 858 858 858 857 856 856 856 856 857 856
789 786 790 793 796 799 806 809 806 814 812 816 820 824 826 828 830 833 836 838 840 842 845 848 849 851 853 855 856 857 858 858 859 859 859 859 859 858 859 859 859 858 858 857 857 856 856 856 856
787 795 796 799 800 807 802 816 815 811 814 818 821 822 825 828 830 832 834 837 839 841 845 847 849 852 853 855 856 857 858 859 860 860 860 860 860 859 859 860 860 859 858 857 856 856 856 855 855
795 797 815 804 800 804 805 819 813 810 813 818 820 823 824 826 829 831 834 837 840 842 844 847 849 851 853 854 856 857 858 859 859 860 860 861 861 860 860 860 860 859 859 858 857 856 855 855 854
804 819 817 813 796 803 807 817 809 810 812 816 818 821 823 825 828 830 832 835 838 840 843 845 847 849 851 853 854 855 857 858 859 860 860 860 861 861 860 860 859 859 859 858 857 856 855 854 853
816 817 814 815 805 804 811 811 807 808 810 813 814 818 822 823 822 827 831 833 837 840 843 845 846 847 851 853 854 855 855 857 857 858 859 859 859 859 860 859 859 858 857 857 856 855 855 854 852
801 809 813 808 806 808 810 809 808 806 808 811 812 814 817 818 819 824 829 832 835 839 840 842 845 847 849 851 853 855 856 855 856 857 857 857 858 859 858 858 858 857 857 857 855 855 854 854 852
796 808 812 811 808 807 813 807 802 803 801 800 804 808 810 812 816 820 824 829 831 833 836 838 841 845 848 851 852 852 853 854 856 855 855 856 856 856 857 857 856 855 855 855 853 853 853 852 851
796 804 805 812 811 811 812 806 804 797 797 798 797 799 802 806 809 813 818 820 824 828 831 834 837 842 845 848 851 852 852 853 855 854 854 854 855 855 855 854 854 853 853 852 852 852 851 852 851
810 795 799 807 815 827 815 831 807 797 795 795 794 795 794 796 801 805 811 815 817 820 826 829 833 837 842 846 849 850 851 851 853 854 853 853 854 855 855 855 854 852 852 852 851 851 850 850 850
804 794 803 809 818 821 825 830 800 798 797 792 788 787 789 787 791 796 801 806 809 816 820 824 828 832 836 840 843 846 848 848 850 851 851 853 854 855 855 856 855 853 852 851 851 851 850 850 851
793 804 809 814 820 835 813 821 798 792 793 786 781 781 780 784 784 788 794 802 807 812 817 821 823 827 832 835 838 841 843 846 846 849 851 852 853 854 857 857 855 855 854 853 852 851 851 852 852
798 804 824 836 839 826 823 829 800 783 785 792 789 780 771 775 781 786 790 795 801 805 810 816 820 824 828 831 833 837 839 842 845 847 850 852 853 852 855 857 856 855 854 853 853 851 851 851 851
799 797 813 840 832 816 825 819 792 787 788 788 786 772 768 771 775 781 787 794 799 803 808 815 820 827 832 832 833 834 836 836 840 844 847 851 851 850 855 858 860 858 855 854 854 854 855 854 854
801 809 787 812 825 825 805 800 783 787 787 788 792 793 793 788 788 791 793 795 801 806 812 819 825 834 837 837 839 837 837 834 833 840 845 846 850 849 855 858 859 860 858 856 854 855 854 855 857
782 781 807 809 831 833 806 810 788 786 785 794 800 802 801 799 800 802 802 803 806 810 814 817 824 833 842 844 842 849 838 839 819 831 839 841 850 855 855 854 855 856 858 856 854 856 857 855 857
789 791 797 796 803 807 809 793 777 783 785 796 802 804 804 803 804 805 806 808 809 811 813 812 821 829 830 840 842 843 847 844 831 833 841 846 851 852 852 854 856 855 854 854 855 855 858 858 858
773 773 777 796 805 804 799 790 785 785 789 795 801 802 803 806 806 808 810 812 813 814 815 816 813 823 823 827 830 829 839 842 844 843 848 853 853 851 852 854 854 854 854 854 854 855 858 857 858
Wind_Speed
4 1 2 1 1 5 6 5 8 14 9 2 9 1 5 7 2 7 7 7 11 10 9 9 9 10 10 11 11 13 13 12 12 12 13 14 14 13 13 13 14 14 14 14 14 13 13 12 12
2 1 1 1 3 7 5 7 14 7 6 12 10 6 4 4 3 9 10 11 11 11 11 10 10 10 10 10 10 10 11 12 12 13 12 12 13 14 12 12 12 13 12 13 13 14 14 13 11
1 2 1 3 3 6 6 3 7 7 12 5 4 5 3 3 8 11 8 13 12 11 10 10 9 10 9 10 9 9 9 10 11 12 12 12 11 11 12 10 10 10 10 11 12 12 11 10 8
1 1 2 4 10 5 5 11 15 12 6 2 8 8 5 6 7 6 15 13 12 11 10 8 9 9 10 9 8 9 11 10 10 11 11 11 11 10 10 9 9 8 9 10 10 10 8 7 7
0 1 3 6 10 5 11 14 11 8 8 8 3 6 9 3 9 17 15 13 13 11 9 8 8 7 8 8 7 8 9 9 9 10 11 9 9 9 9 8 8 8 8 8 9 7 6 5 6
2 1 4 6 10 11 9 8 7 8 9 10 11 13 5 9 16 14 13 12 11 10 8 7 7 6 9 8 8 7 9 9 9 9 9 9 8 9 9 9 8 9 8 8 7 6 4 4 5
2 1 4 9 11 8 6 6 5 8 9 7 13 9 6 11 12 13 13 12 10 8 8 8 6 7 7 7 10 10 10 10 11 11 10 9 8 8 10 10 10 10 9 7 5 3 2 3 4
2 0 6 4 8 4 9 5 9 7 5 11 12 6 9 14 15 13 13 11 9 7 6 6 7 5 7 6 9 9 11 11 11 11 10 10 8 8 8 10 10 11 9 7 5 2 1 3 5
0 2 4 5 8 8 12 7 5 4 12 4 4 11 17 21 16 15 13 10 9 7 6 6 6 6 7 9 9 11 12 11 10 9 9 7 5 4 3 5 8 8 8 6 4 2 2 5 8
2 1 2 3 5 9 12 10 9 8 9 7 13 16 23 20 18 17 14 12 10 9 8 7 7 8 10 9 9 9 8 7 7 8 6 4 5 5 3 2 4 4 4 3 3 4 4 4 6
2 1 3 3 7 15 13 11 5 12 6 8 22 22 22 20 17 16 14 13 12 10 10 10 11 10 9 8 8 6 5 6 6 6 4 3 4 5 5 4 4 4 4 4 6 6 4 4 6
1 3 3 8 11 12 12 11 12 1 1 14 19 21 21 16 17 18 16 14 13 12 12 13 13 13 9 8 7 6 5 5 5 6 7 5 6 5 5 4 4 3 3 5 6 5 4 5 9
1 3 5 9 11 11 11 8 10 5 13 19 20 19 17 16 16 15 13 13 13 13 14 13 13 14 11 8 6 6 6 5 4 4 4 5 5 5 5 5 3 1 2 3 4 5 6 6 5
2 9 14 10 10 8 9 6 2 7 16 17 19 17 15 16 17 14 14 15 15 15 18 15 15 14 11 8 7 5 4 4 3 5 5 3 4 3 5 4 2 1 3 2 2 6 6 5 7
4 17 12 8 6 4 11 5 0 12 16 17 17 15 15 16 16 16 17 16 17 17 18 18 17 14 12 10 7 6 6 5 3 2 4 3 2 3 5 4 2 1 1 1 2 5 6 8 9
6 5 4 6 8 8 3 2 5 14 17 17 16 14 14 16 19 18 17 16 15 16 18 17 16 14 14 12 11 11 11 9 7 6 4 5 5 3 4 2 1 2 3 2 2 4 6 6 7
3 5 6 8 6 6 9 2 8 15 15 16 16 15 14 13 17 19 19 19 18 18 18 20 20 17 15 14 13 14 15 13 9 8 8 5 5 5 5 6 4 4 3 4 3 4 7 9 12
2 4 3 6 4 10 10 7 11 16 17 16 16 15 14 15 19 21 20 19 19 18 18 19 21 21 18 13 10 9 10 11 11 10 11 9 8 7 7 5 6 6 7 6 6 5 7 8 11
4 5 4 4 2 5 8 8 11 16 16 15 16 15 16 17 20 19 20 21 20 19 19 21 21 22 16 14 10 9 9 9 9 7 9 12 11 10 9 7 6 6 5 6 6 6 7 8 7
5 5 5 4 3 3 2 9 11 17 21 20 19 18 19 18 15 19 22 22 24 25 24 24 26 23 20 16 14 11 9 9 8 8 8 9 11 10 10 10 10 9 9 10 5 5 5 5 4
12 10 7 2 3 4 6 8 11 14 17 18 18 17 18 19 18 17 21 25 26 26 26 27 30 26 26 22 16 14 13 12 8 9 9 7 9 10 10 11 10 9 5 5 5 4 8 5 3
8 6 9 5 3 4 5 5 3 10 17 20 20 19 20 20 20 18 21 23 27 29 25 26 30 32 28 26 18 17 17 16 16 15 10 6 4 4 4 5 5 5 4 3 2 1 1 2 2
1 2 5 5 3 3 1 3 3 3 10 18 20 22 21 21 20 20 24 27 29 24 25 25 26 29 30 30 24 21 19 19 14 10 10 5 4 4 5 5 6 5 5 5 4 4 5 6 4
14 13 9 5 1 4 4 5 8 3 1 1 13 20 21 19 18 19 24 20 21 21 21 21 23 28 31 30 26 25 23 17 12 12 8 9 9 6 5 5 5 5 6 6 6 7 7 7 8
2 7 0 1 2 4 3 6 10 4 5 5 12 14 20 19 18 16 16 21 22 24 24 21 21 23 26 30 28 24 21 19 12 11 13 14 12 8 4 4 4 6 6 6 7 8 9 9 9
15 5 6 8 6 4 3 6 4 2 4 6 8 9 15 17 15 16 15 16 17 18 18 15 13 10 6 9 11 16 16 16 15 15 16 13 9 8 8 6 6 7 8 8 8 9 9 9 10
7 8 3 3 2 4 4 6 8 4 2 6 10 11 10 11 10 9 11 7 8 10 10 18 27 29 24 19 9 6 11 16 20 19 15 13 11 10 9 8 7 8 8 9 10 10 12 12 10
5 6 4 3 6 9 7 4 9 7 4 4 6 6 8 11 11 10 14 19 23 26 31 39 36 33 23 14 20 14 9 13 23 18 15 15 14 10 12 12 6 6 6 11 14 14 13 14 10
5 4 2 2 3 11 14 6 2 3 3 4 2 4 6 8 9 9 14 20 25 27 32 33 24 17 16 8 10 5 5 11 10 14 15 15 14 9 6 6 8 9 12 12 13 13 9 10 9
2 10 10 8 6 4 5 5 1 2 5 7 6 5 6 7 6 8 11 14 16 24 27 21 12 13 12 15 19 17 13 11 10 12 13 13 11 10 10 11 12 12 10 9 7 6 4 4 6
Wind_Direction
145 166 318 281 87 85 73 64 116 125 129 112 138 189 102 50 37 110 145 148 139 131 128 123 118 108 108 111 105 106 104 107 111 111 109 107 99 102 99 101 100 96 92 93 95 94 92 89 88
115 15 314 123 84 99 74 116 132 130 117 120 103 108 64 79 72 126 137 148 136 125 125 122 120 112 108 106 109 106 104 106 107 108 109 107 107 98 100 98 96 94 99 101 96 93 93 94 89
175 249 346 56 73 88 115 153 118 105 134 117 110 68 64 85 118 137 136 139 134 127 124 123 117 120 117 115 115 116 114 111 110 108 107 107 106 104 99 97 95 102 107 104 101 102 100 97 88
225 127 84 80 85 65 127 146 134 136 120 77 121 82 85 125 136 146 140 138 134 131 123 124 122 119 123 126 127 121 114 110 112 108 106 103 104 98 95 94 95 101 106 110 113 112 113 103 81
74 85 72 93 76 88 118 135 145 132 128 143 159 114 110 50 122 137 141 141 138 134 133 127 133 133 130 124 116 134 115 106 104 97 97 97 101 98 92 90 97 104 105 122 121 120 112 91 65
62 347 105 96 104 116 129 143 120 111 119 123 121 121 91 129 135 144 143 142 142 138 131 125 135 129 120 109 126 116 126 116 113 112 115 112 108 103 100 97 100 102 116 131 131 128 99 66 51
76 57 94 120 128 137 145 121 114 120 131 120 137 113 121 148 152 148 144 143 141 135 135 129 121 119 112 107 129 121 125 121 125 128 120 116 112 107 102 102 103 107 121 129 132 119 70 12 6
88 181 123 114 158 128 139 108 121 121 96 120 149 148 157 162 158 148 144 145 140 140 145 141 136 124 117 121 138 138 128 128 132 127 124 123 113 102 103 111 110 113 122 131 142 164 307 319 313
38 57 128 149 173 147 149 134 78 114 131 116 170 153 145 153 154 150 149 150 150 152 154 150 149 140 131 122 129 122 123 130 128 123 124 113 122 122 133 132 116 122 132 144 161 181 274 306 309
40 79 163 175 156 151 158 141 128 149 131 108 115 125 141 154 163 163 166 167 167 167 165 159 152 145 136 128 135 131 133 143 137 137 139 131 130 129 153 148 145 156 169 184 213 240 279 314 352
87 53 355 201 139 147 143 134 127 147 176 179 156 148 155 162 170 172 175 173 172 171 168 162 156 153 146 143 145 142 152 160 162 157 151 162 172 192 205 209 218 224 242 253 250 245 242 297 333
220 271 266 132 140 143 147 126 131 115 119 149 152 153 158 169 177 179 179 176 173 174 173 167 165 161 160 157 157 146 142 139 139 157 132 96 112 155 193 196 177 192 241 265 261 250 266 301 318
215 353 76 128 127 129 130 138 133 79 127 141 151 159 168 174 180 184 182 179 176 177 178 178 178 171 168 169 178 165 162 154 139 138 119 68 86 94 131 153 162 187 315 283 290 288 297 303 331
358 112 110 110 110 124 128 128 138 132 144 148 160 171 176 181 182 184 188 186 184 181 183 185 186 185 189 187 183 185 201 203 186 181 159 129 96 113 127 130 118 325 342 356 337 336 351 8 341
130 105 94 106 108 104 129 154 162 150 161 158 172 177 181 192 195 198 194 194 188 188 187 193 195 198 202 205 215 223 221 230 238 282 248 208 67 126 149 140 114 261 295 359 9 2 3 354 345
123 94 135 166 163 163 209 237 146 165 170 171 178 185 192 197 202 204 205 205 197 191 194 197 200 207 216 228 243 245 243 241 249 281 266 250 241 191 186 214 263 313 243 267 311 344 341 342 330
43 156 153 177 198 166 200 223 172 176 182 181 185 192 201 201 211 211 210 211 208 203 200 202 204 211 219 237 252 236 230 236 251 250 247 253 221 238 246 257 255 265 253 267 274 315 330 331 330
206 179 175 179 186 190 200 233 179 184 189 193 195 196 206 214 218 214 211 213 217 216 213 211 211 213 224 237 224 210 214 236 238 232 237 230 225 230 241 262 260 264 243 248 259 293 315 320 322
229 248 184 162 89 195 226 248 200 192 198 198 203 204 211 220 222 223 221 216 215 219 218 218 221 224 219 215 213 220 224 220 227 252 237 230 236 240 242 244 261 265 269 255 270 288 306 314 325
235 254 246 128 92 209 249 237 198 197 207 205 200 204 214 224 222 223 218 219 218 216 220 219 222 221 223 218 216 220 228 229 216 227 235 241 229 232 243 249 252 256 252 263 260 263 279 294 333
259 269 263 306 149 120 297 266 206 208 216 218 219 214 213 222 225 220 214 215 218 220 216 220 224 222 223 220 224 232 242 239 229 225 228 230 236 242 251 256 258 258 278 255 247 261 275 266 292
258 258 249 238 240 280 357 297 268 219 216 212 217 218 219 217 224 228 222 214 216 221 219 215 220 225 225 224 224 228 233 229 235 235 220 226 248 244 231 236 244 256 254 257 273 343 21 332 359
312 178 139 130 124 285 167 279 273 259 225 221 223 219 221 221 218 222 221 221 218 216 214 215 215 216 222 222 223 223 227 230 235 219 210 192 162 82 83 118 125 119 107 112 105 84 59 55 59
123 107 88 74 78 258 240 227 286 259 137 269 232 230 226 223 216 218 222 220 216 213 214 211 211 216 222 223 223 222 223 225 206 201 180 151 137 122 98 106 97 111 107 95 97 86 81 71 62
188 172 246 236 218 271 120 191 254 252 313 308 292 266 236 219 219 209 200 200 203 203 206 208 208 212 220 222 226 226 228 223 192 176 171 152 144 126 103 90 113 105 102 99 95 89 86 83 78
194 225 248 250 239 278 132 232 245 309 322 348 347 288 239 226 219 218 213 205 204 200 194 201 207 212 229 222 219 225 216 188 178 176 163 148 138 132 119 109 95 97 99 97 93 83 77 80 73
167 207 267 240 88 266 235 265 268 240 300 10 20 36 49 53 58 84 86 123 153 140 127 106 85 66 54 52 60 158 170 163 149 144 138 126 119 128 134 109 92 81 86 93 93 91 92 89 76
242 133 194 212 246 252 230 250 260 219 206 36 16 53 65 70 75 76 78 83 87 94 100 103 94 69 60 55 32 25 77 128 136 141 154 148 146 144 125 120 107 68 85 93 93 89 83 82 70
180 209 190 234 255 266 274 263 229 250 194 151 119 101 102 104 108 107 104 104 109 113 119 116 96 87 91 54 23 137 200 185 153 150 159 162 165 165 175 204 196 153 128 110 100 88 75 52 43
249 235 215 240 231 245 287 270 65 137 145 141 152 146 107 66 78 103 113 126 128 132 138 144 135 150 140 157 190 193 194 172 159 157 167 171 170 164 160 161 150 139 122 110 94 85 52 32 358